CW9790 Weather Reports


Display with metric or nautical units.
time (UTC)temp
F
wind
direction
speed
MPH
gust
MPH
rain 1hr
in
rain 24hr
in
rain mn
in
humidity
%
barometer
mb
20260503005016 67 0.0 1.0 0.00 0.01 0.01 48 1018.0
20260503004017 68 0.0 2.0 0.00 0.01 0.01 47 1018.0
20260503003018 68 0.0 2.0 0.00 0.01 0.01 47 1017.9
20260503002016 68 45 1.0 3.0 0.00 0.01 0.01 47 1018.0
20260503001016 69 0 1.0 5.0 0.00 0.01 0.01 44 1018.0
20260503000017 70 23 1.0 5.0 0.00 0.01 0.01 44 1018.1
20260502235037 70 0 2.0 6.0 0.00 0.01 0.01 46 1018.3
20260502234016 71 0 1.0 5.0 0.00 0.01 0.01 43 1018.3
20260502233036 71 23 2.0 7.0 0.00 0.01 0.01 43 1018.2
20260502232016 71 23 1.0 5.0 0.00 0.01 0.01 43 1018.2
20260502231139 71 23 2.0 9.0 0.00 0.01 0.01 41 1018.3
20260502230017 72 23 1.0 5.0 0.00 0.01 0.01 41 1018.2
20260502225017 71 23 2.0 7.0 0.00 0.01 0.01 43 1018.2
20260502224037 72 45 3.0 10.0 0.00 0.01 0.01 43 1018.1
20260502223016 72 338 2.0 7.0 0.00 0.01 0.01 42 1018.3
20260502222016 72 68 3.0 11.0 0.00 0.01 0.01 42 1018.4
20260502221016 73 45 2.0 9.0 0.00 0.01 0.01 42 1018.5
20260502220016 73 45 2.0 6.0 0.00 0.01 0.01 44 1018.5
20260502215057 72 23 2.0 9.0 0.00 0.01 0.01 42 1018.5
20260502214016 72 0 2.0 9.0 0.00 0.01 0.01 43 1018.7
20260502213036 71 45 4.0 7.0 0.00 0.01 0.01 43 1018.9
20260502212016 73 45 3.0 12.0 0.00 0.01 0.01 40 1019.1
20260502211016 72 68 3.0 7.0 0.00 0.01 0.01 42 1019.2
20260502210016 72 23 3.0 9.0 0.00 0.01 0.01 41 1019.3
20260502205038 72 23 3.0 10.0 0.00 0.01 0.01 46 1019.6
20260502204016 73 45 3.0 6.0 0.00 0.01 0.01 39 1019.8
20260502203016 71 0 3.0 9.0 0.00 0.01 0.01 46 1019.7
20260502202017 72 45 2.0 10.0 0.00 0.01 0.01 44 1019.9
20260502201036 70 23 3.0 6.0 0.00 0.01 0.01 47 1019.9
20260502200036 71 45 3.0 8.0 0.00 0.01 0.01 46 1019.9
20260502195016 72 23 3.0 10.0 0.00 0.01 0.01 45 1020.2
20260502194016 72 0 4.0 10.0 0.00 0.01 0.01 43 1020.3
20260502193016 71 0 3.0 9.0 0.00 0.01 0.01 49 1020.4
20260502192038 70 23 2.0 7.0 0.00 0.01 0.01 49 1020.4
20260502191018 70 23 4.0 13.0 0.00 0.01 0.01 49 1020.5
20260502190038 71 45 3.0 11.0 0.00 0.01 0.01 50 1020.6
20260502185019 69 23 3.0 8.0 0.00 0.01 0.01 48 1020.5
20260502184018 70 23 3.0 7.0 0.00 0.01 0.01 50 1020.7
20260502183017 71 90 3.0 10.0 0.00 0.01 0.01 52 1020.9
20260502182017 69 45 3.0 10.0 0.00 0.01 0.01 53 1020.8
20260502181039 68 23 4.0 11.0 0.00 0.02 0.01 55 1020.7
20260502164017 67 23 4.0 10.0 0.00 0.10 0.01 66 1021.6
20260502163017 65 23 4.0 10.0 0.00 0.12 0.01 65 1021.4
20260502162038 65 23 4.0 10.0 0.00 0.13 0.01 64 1021.6
20260502161017 64 45 3.0 8.0 0.00 0.13 0.01 64 1021.6
20260502152017 61 23 3.0 9.0 0.00 0.13 0.01 69 1021.5
20260502151018 61 23 4.0 9.0 0.00 0.13 0.01 69 1021.4
20260502123037 47 0 3.0 7.0 0.00 0.22 0.01 92 1018.5
20260502122016 47 0 3.0 7.0 0.00 0.22 0.01 92 1018.3
20260502121037 47 338 3.0 9.0 0.00 0.23 0.01 93 1018.3
20260502115016 46 338 2.0 6.0 0.00 0.23 0.01 93 1018.1
20260502114016 46 338 2.0 4.0 0.00 0.23 0.01 93 1017.8
20260502113016 47 0 2.0 5.0 0.00 0.23 0.01 93 1017.8
20260502112016 47 338 2.0 5.0 0.00 0.23 0.01 93 1017.7
20260502111016 46 338 2.0 5.0 0.00 0.23 0.01 93 1017.6
20260502110017 46 338 2.0 5.0 0.00 0.23 0.01 93 1017.5
20260502105017 46 315 1.0 3.0 0.00 0.23 0.01 94 1017.6
20260502104016 46 0.0 3.0 0.00 0.23 0.01 94 1017.7
20260502103037 47 338 1.0 6.0 0.00 0.23 0.01 94 1017.5
20260502102016 47 338 1.0 3.0 0.00 0.24 0.01 94 1017.3
20260502101017 47 0.0 2.0 0.00 0.25 0.01 94 1017.3
20260502091017 47 23 2.0 4.0 0.00 0.40 0.01 93 1016.6
20260502071017 49 23 3.0 5.0 0.00 0.40 0.00 93 1016.0
20260502070017 49 23 3.0 7.0 0.00 0.40 0.00 93 1015.9
20260502065037 49 0 3.0 7.0 0.00 0.40 0.00 93 1015.9
20260502064040 49 0 3.0 7.0 0.00 0.40 0.00 93 1016.2
20260502063017 49 0 3.0 5.0 0.00 0.40 0.00 93 1016.0
20260502062017 49 315 2.0 5.0 0.00 0.40 0.00 93 1016.3
20260502061019 49 23 2.0 4.0 0.00 0.40 0.00 93 1016.2
20260502060017 49 23 2.0 6.0 0.00 0.40 0.00 93 1016.1
20260502055018 49 23 2.0 5.0 0.00 0.41 0.00 92 1016.2
20260502054038 49 23 2.0 6.0 0.00 0.41 0.00 93 1016.2
20260502053017 49 23 2.0 5.0 0.00 0.41 0.00 93 1016.2
20260502052018 49 23 3.0 7.0 0.00 0.41 0.00 93 1015.9
20260502051038 49 23 3.0 9.0 0.00 0.41 0.00 93 1015.7
20260502050017 49 23 4.0 8.0 0.00 0.41 0.41 93 1015.7
20260502045016 49 23 3.0 7.0 0.00 0.41 0.41 93 1015.6
20260502044018 49 0 3.0 7.0 0.00 0.41 0.41 93 1015.5
20260502043017 49 23 3.0 7.0 0.00 0.41 0.41 93 1015.4
20260502042037 50 0 2.0 6.0 0.00 0.42 0.41 93 1015.8
20260502041016 50 45 2.0 5.0 0.00 0.42 0.41 93 1015.9
20260502040017 50 0 3.0 5.0 0.00 0.42 0.41 93 1015.6
20260502035016 50 23 3.0 6.0 0.00 0.42 0.41 93 1015.7
20260502034016 51 0 2.0 6.0 0.00 0.42 0.41 93 1015.5
20260502033018 51 0 2.0 4.0 0.00 0.42 0.41 93 1015.3
20260502032016 51 23 2.0 6.0 0.00 0.43 0.41 93 1015.4
20260502031017 51 23 2.0 5.0 0.00 0.44 0.41 92 1015.2
20260502030036 51 23 2.0 4.0 0.00 0.45 0.41 92 1014.9
20260502025016 52 23 3.0 9.0 0.00 0.46 0.41 92 1014.8
20260502024017 52 23 3.0 8.0 0.00 0.46 0.41 92 1014.8
20260502023016 52 23 4.0 9.0 0.00 0.46 0.41 92 1014.6
20260502022037 51 23 4.0 11.0 0.00 0.47 0.41 92 1014.4
20260502021036 51 23 4.0 11.0 0.00 0.51 0.41 91 1014.2
20260502020036 51 23 4.0 7.0 0.00 0.53 0.41 91 1014.0
20260502015016 51 0 5.0 10.0 0.00 0.55 0.41 90 1013.7
20260502014016 52 23 5.0 13.0 0.00 0.57 0.41 90 1013.7
20260502013016 52 23 6.0 14.0 0.00 0.64 0.41 90 1013.4
20260502012016 52 23 5.0 14.0 0.00 0.68 0.41 90 1013.1
20260502011016 52 45 6.0 15.0 0.00 0.72 0.41 90 1013.1
20260502010017 52 23 6.0 15.0 0.00 0.72 0.41 90 1013.0